"Pseudo-MPEC" for P110hDG

Created 2020 May 26 13:07:24 UT using Find_Orb

Click here for an explanation of pseudo-MPECs

 
 Astrometry: 
     P110hDG  C2020 05 15t*9h8n+AstrometryJiOoX;dc9hredacted;6^+Muln03tFcIPYsF51
     P110hDG  C2020 05 15K0$uS-j2I.OPfTSq[NdO8Q#click^nLh'h;RS?'here,'Kr*YHd4F51
     P110hDG  C2020 05 15T=+for5EI7!Auon=w6Y)CR1explanationP3\=pJ=Z8qQD`vG$3bF51

Station data:
(F51) Pan-STARRS 1, Haleakala  (N20.707235 W156.255910)  US/Hawaii.
   Observers N. Primak, A. Schultz, S. Watters, J. Thiel, T. Goggia. Measurer
   PS1 Science Consortium. 1.8-m Ritchey-Chrétien + CCD.

Orbital elements:  P110hDG
   Perihelion 2020 Jun 3.438015 +/- 39.3 TT = 10:30:44 (JD 2459003.938015)
Epoch 2020 May 15.0 TT = JDT 2458984.5   Earth MOID: 0.0105   AutoNEOCP
M 343.80928833 +/- 18               (J2000 ecliptic)
n   0.83294059 +/- 0.376            Peri.  359.39767 +/- 110
a   1.11873363 +/- 0.336            Node   254.01937 +/- 60
e   0.0835054 +/- 0.246             Incl.    0.08499 +/- 0.54
P   1.18/432.20d           H 30.3   G  0.15   U 12.1  SR
q 1.02531326 +/- 0.207    Q 1.21215400 +/- 47.6
From 3 observations 2020 May 15 (31.8 min); mean residual 0".17
Residuals in arcseconds: 
200515 F51  .10-  .14-    200515 F51  .20+  .27+    200515 F51  .10-  .14-    

Ephemerides (geocentric):
Date (UTC) HH   RA              Dec         delta   r     elong  mag " sig PA
---- -- -- --  -------------   -----------  ------ ------ -----  --- ---- ---
2020 05 26 13  17 07 58.273   -24 03 03.36  .01295 1.0258 167.3 21.6  54d 167
2020 05 26 14  17 08 35.672   -24 03 34.66  .01293 1.0258 167.2 21.6  54d 167
2020 05 26 15  17 09 13.142   -24 04 05.44  .01292 1.0258 167.1 21.6  54d 167
2020 05 26 16  17 09 50.683   -24 04 35.70  .01291 1.0258 167.0 21.6  55d 167
2020 05 26 17  17 10 28.293   -24 05 05.43  .01290 1.0258 166.9 21.6  55d 167
2020 05 26 18  17 11 05.972   -24 05 34.63  .01289 1.0258 166.8 21.6  55d 167
2020 05 26 19  17 11 43.721   -24 06 03.29  .01288 1.0258 166.7 21.6  55d 167
2020 05 26 20  17 12 21.539   -24 06 31.42  .01286 1.0258 166.6 21.6  55d 167
2020 05 26 21  17 12 59.425   -24 06 59.00  .01285 1.0257 166.5 21.7  55d 166
2020 05 26 22  17 13 37.378   -24 07 26.04  .01284 1.0257 166.3 21.7  55d 166
2020 05 26 23  17 14 15.399   -24 07 52.53  .01283 1.0257 166.2 21.7  55d 166
2020 05 27 00  17 14 53.487   -24 08 18.47  .01282 1.0257 166.1 21.7  55d 166
2020 05 27 01  17 15 31.642   -24 08 43.86  .01281 1.0257 166.0 21.7  55d 166
2020 05 27 02  17 16 09.862   -24 09 08.68  .01280 1.0257 165.9 21.7  55d 166
2020 05 27 03  17 16 48.148   -24 09 32.95  .01279 1.0257 165.8 21.7  55d 166
2020 05 27 04  17 17 26.500   -24 09 56.65  .01278 1.0257 165.7 21.7  55d 166
2020 05 27 05  17 18 04.916   -24 10 19.78  .01277 1.0257 165.6 21.7  55d 166
2020 05 27 06  17 18 43.396   -24 10 42.34  .01276 1.0257 165.5 21.7  55d 166
2020 05 27 07  17 19 21.941   -24 11 04.32  .01274 1.0257 165.4 21.7  55d 166
2020 05 27 08  17 20 00.548   -24 11 25.73  .01273 1.0256 165.3 21.7  55d 166
2020 05 27 09  17 20 39.219   -24 11 46.55  .01272 1.0256 165.2 21.7  55d 166
2020 05 27 10  17 21 17.951   -24 12 06.79  .01271 1.0256 165.1 21.7  55d 166
2020 05 27 11  17 21 56.746   -24 12 26.45  .01270 1.0256 165.0 21.7  55d 166
2020 05 27 12  17 22 35.602   -24 12 45.51  .01269 1.0256 164.9 21.7  55d 166
2020 05 27 13  17 23 14.518   -24 13 03.98  .01268 1.0256 164.8 21.7  55d 166
2020 05 27 14  17 23 53.495   -24 13 21.85  .01267 1.0256 164.7 21.7  55d 166
2020 05 27 15  17 24 32.532   -24 13 39.12  .01266 1.0256 164.5 21.7  56d 166
2020 05 27 16  17 25 11.628   -24 13 55.79  .01266 1.0256 164.4 21.7  56d 166
2020 05 27 17  17 25 50.783   -24 14 11.85  .01265 1.0256 164.3 21.7  56d 166
2020 05 27 18  17 26 29.997   -24 14 27.31  .01264 1.0256 164.2 21.7  56d 166
2020 05 27 19  17 27 09.267   -24 14 42.15  .01263 1.0255 164.1 21.7  56d 166
2020 05 27 20  17 27 48.596   -24 14 56.37  .01262 1.0255 164.0 21.7  56d 166
2020 05 27 21  17 28 27.980   -24 15 09.98  .01261 1.0255 163.9 21.7  56d 166
2020 05 27 22  17 29 07.421   -24 15 22.97  .01260 1.0255 163.8 21.7  56d 166
2020 05 27 23  17 29 46.917   -24 15 35.34  .01259 1.0255 163.7 21.7  56d 166
2020 05 28 00  17 30 26.468   -24 15 47.08  .01258 1.0255 163.6 21.7  56d 166
2020 05 28 01  17 31 06.074   -24 15 58.19  .01257 1.0255 163.5 21.7  56d 166
2020 05 28 02  17 31 45.733   -24 16 08.67  .01256 1.0255 163.3 21.7  56d 166
2020 05 28 03  17 32 25.446   -24 16 18.51  .01256 1.0255 163.2 21.7  56d 166
2020 05 28 04  17 33 05.211   -24 16 27.72  .01255 1.0255 163.1 21.7  56d 166
2020 05 28 05  17 33 45.029   -24 16 36.29  .01254 1.0255 163.0 21.7  56d 166
2020 05 28 06  17 34 24.898   -24 16 44.21  .01253 1.0255 162.9 21.7  56d 166
2020 05 28 07  17 35 04.817   -24 16 51.49  .01252 1.0254 162.8 21.7  56d 166
2020 05 28 08  17 35 44.787   -24 16 58.13  .01251 1.0254 162.7 21.7  56d 166
2020 05 28 09  17 36 24.807   -24 17 04.11  .01251 1.0254 162.6 21.7  56d 166
2020 05 28 10  17 37 04.876   -24 17 09.44  .01250 1.0254 162.5 21.7  56d 166
2020 05 28 11  17 37 44.993   -24 17 14.12  .01249 1.0254 162.3 21.7  56d 166
2020 05 28 12  17 38 25.158   -24 17 18.14  .01248 1.0254 162.2 21.7  56d 166